TimeEST,TemperatureF,Dew PointF,Humidity,Sea Level PressureIn,VisibilityMPH,Wind Direction,Wind SpeedMPH,Gust SpeedMPH,PrecipitationIn,Events,Conditions,WindDirDegrees,DateUTC
12:53 AM,70.0,68.0,93,30.12,10.0,East,3.5,-,N/A,,Overcast,100,2013-01-04 05:53:00
1:01 AM,71.6,68.0,88,30.11,10.0,ESE,3.5,-,N/A,,Overcast,120,2013-01-04 06:01:00
1:53 AM,71.1,68.0,90,30.12,10.0,Calm,Calm,-,N/A,,Overcast,0,2013-01-04 06:53:00
2:53 AM,70.0,66.0,87,30.11,10.0,ESE,5.8,-,N/A,,Overcast,120,2013-01-04 07:53:00
3:53 AM,70.0,66.0,87,30.12,10.0,East,3.5,-,N/A,,Overcast,80,2013-01-04 08:53:00
4:53 AM,69.1,66.0,90,30.13,10.0,NNE,4.6,-,N/A,,Overcast,20,2013-01-04 09:53:00
5:53 AM,66.0,64.0,93,30.14,8.0,NE,8.1,-,0.00,,Overcast,50,2013-01-04 10:53:00
6:41 AM,64.4,64.4,100,30.15,1.8,NE,8.1,-,0.05,Rain,Heavy Rain,40,2013-01-04 11:41:00
6:50 AM,64.4,64.4,100,30.15,3.0,NNE,6.9,-,0.08,Rain,Light Rain,30,2013-01-04 11:50:00
6:53 AM,64.9,64.0,97,30.16,3.0,NNE,5.8,-,0.08,Rain,Light Rain,30,2013-01-04 11:53:00
7:51 AM,64.4,62.6,94,30.18,1.8,NE,8.1,-,0.01,Rain,Light Rain,50,2013-01-04 12:51:00
8:53 AM,64.0,63.0,96,30.22,10.0,NE,9.2,-,0.05,,Overcast,40,2013-01-04 13:53:00
9:53 AM,66.0,64.0,93,30.22,10.0,ENE,9.2,-,N/A,,Overcast,70,2013-01-04 14:53:00
10:53 AM,66.9,64.0,90,30.23,10.0,NE,5.8,-,N/A,,Overcast,40,2013-01-04 15:53:00
11:53 AM,69.1,64.9,87,30.20,10.0,East,5.8,-,N/A,,Overcast,100,2013-01-04 16:53:00
12:53 PM,70.0,66.0,87,30.18,10.0,Variable,4.6,-,N/A,,Overcast,0,2013-01-04 17:53:00
1:53 PM,71.1,66.0,84,30.17,10.0,NE,3.5,-,N/A,,Overcast,40,2013-01-04 18:53:00
2:53 PM,72.0,66.0,81,30.16,10.0,NE,5.8,-,N/A,,Overcast,50,2013-01-04 19:53:00
3:43 PM,71.6,66.2,83,30.15,10.0,NNE,6.9,-,N/A,,Overcast,30,2013-01-04 20:43:00
3:53 PM,71.1,66.0,84,30.16,10.0,NE,5.8,-,N/A,,Overcast,50,2013-01-04 20:53:00
4:53 PM,71.1,64.9,81,30.17,10.0,North,9.2,-,N/A,,Mostly Cloudy,10,2013-01-04 21:53:00
5:53 PM,69.1,64.0,84,30.19,10.0,NNE,8.1,-,N/A,,Mostly Cloudy,20,2013-01-04 22:53:00
6:00 PM,68.0,64.4,88,30.19,10.0,NNE,8.1,-,N/A,,Scattered Clouds,20,2013-01-04 23:00:00
6:19 PM,68.0,64.4,88,30.19,10.0,NNE,9.2,-,N/A,,Mostly Cloudy,20,2013-01-04 23:19:00
6:39 PM,68.0,64.4,88,30.20,10.0,NNE,8.1,-,N/A,,Overcast,20,2013-01-04 23:39:00
6:53 PM,68.0,64.0,87,30.22,10.0,North,10.4,-,N/A,,Overcast,360,2013-01-04 23:53:00
7:53 PM,68.0,63.0,84,30.24,10.0,NNE,10.4,-,N/A,,Overcast,20,2013-01-05 00:53:00
8:53 PM,66.0,62.1,87,30.25,10.0,NNE,9.2,-,N/A,,Overcast,20,2013-01-05 01:53:00
9:53 PM,64.0,62.1,93,30.26,10.0,NE,10.4,-,N/A,,Overcast,40,2013-01-05 02:53:00
10:53 PM,63.0,61.0,93,30.24,10.0,ENE,8.1,-,N/A,,Overcast,70,2013-01-05 03:53:00
11:53 PM,63.0,61.0,93,30.24,8.0,ENE,6.9,-,N/A,,Overcast,60,2013-01-05 04:53:00